This is the latest recevied weather packets stored in our database for station/object K8GLX. If no packets are shown the sender has not sent any weather packets the latest 10 day(s).
| Time | Temp. | Humidity | Pressure | Rain* | Wind** | Luminosity | Snow |
|---|---|---|---|---|---|---|---|
| 1777847829 | 16.11° C | 38% | 1011.6 hPa | 0 mm | - | 145 W/m² | - |
| 1777847534 | 15.56° C | 38% | 1011.6 hPa | 0 mm | - | 161 W/m² | - |
| 1777847228 | 16.11° C | 38% | 1011.7 hPa | 0 mm | - | 109 W/m² | - |
| 1777846935 | 16.11° C | 37% | 1011.6 hPa | 0 mm | - | 157 W/m² | - |
| 1777846629 | 16.11° C | 38% | 1011.5 hPa | 0 mm | - | 197 W/m² | - |
| 1777846334 | 16.11° C | 38% | 1011.6 hPa | 0 mm | - | 130 W/m² | - |
| 1777846029 | 16.11° C | 37% | 1011.7 hPa | 0 mm | - | 159 W/m² | - |
| 1777845875 | 16.11° C | 37% | 1011.7 hPa | 0 mm | - | 158 W/m² | - |
| 1777845429 | 15.56° C | 38% | 1011.9 hPa | 0 mm | - | 147 W/m² | - |
| 1777845263 | 16.11° C | 38% | 1011.7 hPa | 0 mm | - | 162 W/m² | - |
| 1777844829 | 15.56° C | 37% | 1011.9 hPa | 0 mm | - | 129 W/m² | - |
| 1777844535 | 16.11° C | 37% | 1011.5 hPa | 0 mm | - | 152 W/m² | - |
| 1777844229 | 16.11° C | 37% | 1011.5 hPa | 0 mm | - | 179 W/m² | - |
| 1777844060 | 16.11° C | 37% | 1011.6 hPa | 0 mm | - | 276 W/m² | - |
| 1777843629 | 16.11° C | 37% | 1011.6 hPa | 0 mm | - | 152 W/m² | - |
| 1777843462 | 16.67° C | 37% | 1011.5 hPa | 0 mm | - | 205 W/m² | - |
| 1777843029 | 16.67° C | 36% | 1011.7 hPa | 0 mm | - | 445 W/m² | - |
| 1777842734 | 16.11° C | 36% | 1011.7 hPa | 0 mm | - | 438 W/m² | - |
| 1777842429 | 16.67° C | 36% | 1011.7 hPa | 0 mm | - | 227 W/m² | - |
| 1777842262 | 16.67° C | 35% | 1011.5 hPa | 0 mm | - | 167 W/m² | - |
| 1777841829 | 16.67° C | 35% | 1011.4 hPa | 0 mm | - | 514 W/m² | - |
| 1777841534 | 16.67° C | 35% | 1011.7 hPa | 0 mm | - | 471 W/m² | - |
| 1777841229 | 16.67° C | 36% | 1011.5 hPa | 0 mm | - | 534 W/m² | - |
| 1777841062 | 16.67° C | 35% | 1011.6 hPa | 0 mm | - | 542 W/m² | - |
| 1777840632 | 16.67° C | 35% | 1011.6 hPa | 0 mm | - | 554 W/m² | - |
* Rain latest hour (hover to see other rain measurements)
** Current wind speed in m/s (hover to see current wind gust speed)